Regional Weather Roundup
Issued by NWS Little Rock, AR

Home | Current Version | Previous Version | Text Only | Print | Product List | Glossary On
Versions: 1 2 3 4 5 6 7 8 9 10 11 12 13 14 15 16 17 18 19 20 21 22 23 24 25 26 27 28 29 30 31 32 33 34 35 36 37 38 39 40 41 42 43 44 45 46 47 48 49 50
898
ASUS44 KLZK 220505
RWRLZK

WEATHER ROUNDUP FOR ARKANSAS
NATIONAL WEATHER SERVICE LITTLE ROCK AR
1200 AM CDT WED MAY 22 2019

NOTE: "FAIR" INDICATES FEW OR NO CLOUDS BELOW 12,000 FEET WITH NO
SIGNIFICANT WEATHER AND/OR OBSTRUCTIONS TO VISIBILITY.

ARZ001-003-010-029-220600-
NORTHWEST ARKANSAS

CITY           SKY/WX    TMP DP  RH WIND       PRES   REMARKS
FAYETTEVILLE   CLEAR     58  53  84 SW6       29.69R
FORT SMITH     CLEAR     59  55  87 E6        29.70R
HARRISON       CLEAR     54  53  97 SE8       29.73R
BENTONVILLE    CLEAR     58  54  86 S9        29.70R
ROGERS         CLEAR     58  53  84 S12       29.69R
SILOAM SPGS    CLEAR     60  54  80 S9        29.68R
HIGHFILL       CLEAR     59  52  77 S13       29.68R
$$

ARZ004-005-016-220600-
NORTH CENTRAL ARKANSAS

CITY           SKY/WX    TMP DP  RH WIND       PRES   REMARKS
BATESVILLE     LGT RAIN  61  58  90 S6        29.80R
FLIPPIN        CLEAR     57  54  89 VRB3      29.75R
MTN HOME       CLEAR     56  54  93 S5        29.74R
$$

ARZ040-041-220600-
WEST CENTRAL ARKANSAS

CITY           SKY/WX    TMP DP  RH WIND       PRES   REMARKS
MENA           CLEAR    N/A N/A N/A CALM      29.78R
MOUNT IDA      CLOUDY    57  56  96 CALM      29.76R
$$

ARZ009-017-025-026-028-220600-
NORTHEAST ARKANSAS

CITY           SKY/WX    TMP DP  RH WIND       PRES   REMARKS
JONESBORO      CLOUDY    66  57  72 VRB7      29.82R
NEWPORT        HVY RAIN  61  60  97 W12       29.81R FOG
WALNUT RIDGE   LGT RAIN  62  60  93 SW17G23   29.80R
BLYTHEVILLE    MOCLDY    68  60  75 NW6       29.83R
$$

ARZ022-023-033-042-044-220600-
CENTRAL ARKANSAS

CITY           SKY/WX    TMP DP  RH WIND       PRES   REMARKS
LITTLE ROCK    TSTM      60  58  92 S8        29.82R FOG
N LITTLE ROCK    N/A     59  59  98 SW8       29.80R
BENTON           N/A     61  59  94 S7        29.78F FOG
JACKSONVILLE   LGT RAIN  61  61 100 S9        29.80R
CONWAY         CLOUDY    63  59  88 CALM      29.77R
SEARCY         TSTM      61  61 100 S12       29.81R FOG
HOT SPRINGS    CLOUDY    61  60  97 CALM      29.78F
RUSSELLVILLE   CLEAR     58  57  97 CALM      29.76R
CLINTON        CLOUDY    59  59 100 CALM      29.80R
$$

ARZ036-220600-
EAST ARKANSAS

CITY           SKY/WX    TMP DP  RH WIND       PRES   REMARKS
$$

ARZ050-053-066-070-073-220600-
SOUTHWEST ARKANSAS

CITY           SKY/WX    TMP DP  RH WIND       PRES   REMARKS
ARKADELPHIA    MOCLDY    64  64 100 SE3       29.78R
CAMDEN         CLOUDY    64  61  88 CALM      29.78F
TEXARKANA      MOCLDY    64  63  96 S6        29.75S
EL DORADO      CLOUDY    66  66 100 CALM      29.78S
DE QUEEN       CLEAR     59  59 100 E3        29.74R
$$

ARZ056-057-069-220600-
SOUTHEAST ARKANSAS

CITY           SKY/WX    TMP DP  RH WIND       PRES   REMARKS
PINE BLUFF     CLOUDY    66  61  84 N10       29.79R
STUTTGART      CLOUDY    67  64  90 N10       29.81R
MONTICELLO     CLOUDY    70  63  78 CALM      29.79R

$$






USA.gov is the U.S. government's official web portal to all federal, state and local government web resources and services.